| time (UTC) | temp C | wind direction | speed KPH | gust KPH | rain 1hr cm | rain 24hr cm | rain mn cm | humidity % | barometer mb |
| 20260508071207 | 21 | 312 | 8.0 | 19.3 | 0.00 | 0.00 | 0.00 | 41 | 1012.1 |
| 20260508070522 | 21 | 294 | 8.0 | 20.9 | 0.00 | 0.00 | 0.00 | 41 | 1012.1 |
| 20260508065223 | 21 | 319 | 11.3 | 16.1 | 0.00 | 0.00 | 0.00 | 37 | 1012.1 |
| 20260508064205 | 21 | 316 | 6.4 | 22.5 | 0.00 | 0.00 | 0.00 | 41 | 1012.1 |
| 20260508063922 | 21 | 263 | 6.4 | 11.3 | 0.00 | 0.00 | 0.00 | 42 | 1012.2 |
| 20260508062623 | 20 | 306 | 9.7 | 17.7 | 0.00 | 0.00 | 0.00 | 42 | 1012.2 |
| 20260508061323 | 21 | 295 | 6.4 | 17.7 | 0.00 | 0.00 | 0.00 | 41 | 1012.2 |
| 20260508061205 | 21 | 299 | 11.3 | 24.1 | 0.00 | 0.00 | 0.00 | 41 | 1012.2 |
| 20260508060023 | 21 | 298 | 8.0 | 12.9 | 0.00 | 0.00 | 0.00 | 47 | 1012.3 |
| 20260508054722 | 22 | 310 | 17.7 | 29.0 | 0.00 | 0.00 | 0.00 | 47 | 1012.2 |
| 20260508054205 | 21 | 311 | 6.4 | 16.1 | 0.00 | 0.00 | 0.00 | 48 | 1012.1 |
| 20260508053422 | 21 | 333 | 16.1 | 20.9 | 0.00 | 0.00 | 0.00 | 48 | 1012.3 |
| 20260508052123 | 21 | 339 | 9.7 | 14.5 | 0.00 | 0.00 | 0.00 | 51 | 1012.3 |
| 20260508051204 | 21 | 325 | 16.1 | 24.1 | 0.00 | 0.00 | 0.00 | 52 | 1012.2 |
| 20260508050823 | 21 | 315 | 4.8 | 25.7 | 0.00 | 0.00 | 0.00 | 51 | 1012.2 |
| 20260508045522 | 21 | 318 | 9.7 | 14.5 | 0.00 | 0.00 | 0.00 | 52 | 1012.2 |
| 20260508044223 | 20 | 316 | 12.9 | 20.9 | 0.00 | 0.00 | 0.00 | 51 | 1012.5 |
| 20260508044204 | 20 | 351 | 14.5 | 27.4 | 0.00 | 0.00 | 0.00 | 51 | 1012.5 |
| 20260508042922 | 21 | 304 | 11.3 | 20.9 | 0.00 | 0.00 | 0.00 | 51 | 1012.5 |
| 20260508041622 | 21 | 288 | 8.0 | 9.7 | 0.00 | 0.00 | 0.00 | 51 | 1012.6 |
| 20260508040323 | 21 | 329 | 16.1 | 27.4 | 0.00 | 0.00 | 0.00 | 50 | 1012.5 |
| 20260508035023 | 21 | 299 | 12.9 | 24.1 | 0.00 | 0.00 | 0.00 | 50 | 1012.5 |
| 20260508034205 | 21 | 327 | 14.5 | 24.1 | 0.00 | 0.00 | 0.00 | 52 | 1012.4 |
| 20260508033722 | 20 | 303 | 16.1 | 22.5 | 0.00 | 0.00 | 0.00 | 53 | 1012.4 |
| 20260508032422 | 21 | 329 | 12.9 | 19.3 | 0.00 | 0.00 | 0.00 | 55 | 1012.3 |
| 20260508031204 | 21 | 289 | 11.3 | 16.1 | 0.00 | 0.00 | 0.00 | 58 | 1012.2 |
| 20260508031125 | 21 | 266 | 12.9 | 25.7 | 0.00 | 0.00 | 0.00 | 59 | 1012.2 |
| 20260508025823 | 20 | 301 | 11.3 | 22.5 | 0.00 | 0.00 | 0.00 | 65 | 1012.2 |
| 20260508024523 | 20 | 320 | 19.3 | 24.1 | 0.00 | 0.00 | 0.00 | 67 | 1012.1 |
| 20260508024203 | 21 | 295 | 11.3 | 20.9 | 0.00 | 0.00 | 0.00 | 67 | 1012.1 |
| 20260508023222 | 21 | 259 | 8.0 | 17.7 | 0.00 | 0.00 | 0.00 | 68 | 1012.1 |
| 20260508021921 | 20 | 209 | 9.7 | 19.3 | 0.00 | 0.00 | 0.00 | 68 | 1012.1 |
| 20260508021205 | 20 | 271 | 6.4 | 14.5 | 0.00 | 0.00 | 0.00 | 68 | 1012.1 |
| 20260508020623 | 20 | 5 | 9.7 | 14.5 | 0.00 | 0.00 | 0.00 | 68 | 1012.2 |
| 20260508015322 | 20 | 297 | 12.9 | 20.9 | 0.00 | 0.00 | 0.00 | 70 | 1012.1 |
| 20260508014206 | 20 | 262 | 8.0 | 24.1 | 0.00 | 0.00 | 0.00 | 69 | 1012.1 |
| 20260508014022 | 20 | 279 | 9.7 | 20.9 | 0.00 | 0.00 | 0.00 | 69 | 1012.0 |
| 20260508012721 | 21 | 268 | 9.7 | 22.5 | 0.00 | 0.00 | 0.00 | 69 | 1011.8 |
| 20260508011423 | 20 | 224 | 9.7 | 16.1 | 0.00 | 0.00 | 0.00 | 72 | 1011.7 |
| 20260508011204 | 20 | 292 | 14.5 | 22.5 | 0.00 | 0.00 | 0.00 | 72 | 1011.7 |
| 20260508010122 | 20 | 239 | 14.5 | 22.5 | 0.00 | 0.00 | 0.00 | 73 | 1011.6 |
| 20260508004823 | 20 | 255 | 14.5 | 24.1 | 0.00 | 0.00 | 0.00 | 75 | 1011.7 |
| 20260508003522 | 19 | 244 | 12.9 | 22.5 | 0.00 | 0.00 | 0.00 | 77 | 1011.5 |
| 20260508002222 | 18 | 240 | 11.3 | 29.0 | 0.00 | 0.00 | 0.00 | 81 | 1011.7 |
| 20260508001205 | 18 | 223 | 9.7 | 12.9 | 0.00 | 0.00 | 0.00 | 81 | 1011.5 |
| 20260508000923 | 18 | 256 | 11.3 | 20.9 | 0.00 | 0.00 | 0.00 | 82 | 1011.5 |
| 20260507235623 | 18 | 248 | 9.7 | 14.5 | 0.00 | 0.00 | 0.00 | 82 | 1011.5 |
| 20260507234323 | 18 | 240 | 8.0 | 14.5 | 0.00 | 0.00 | 0.00 | 82 | 1011.7 |
| 20260507234204 | 18 | 237 | 6.4 | 12.9 | 0.00 | 0.00 | 0.00 | 82 | 1011.6 |
| 20260507233022 | 18 | 222 | 6.4 | 11.3 | 0.00 | 0.00 | 0.00 | 81 | 1011.6 |
| 20260507231722 | 18 | 258 | 9.7 | 16.1 | 0.00 | 0.00 | 0.00 | 79 | 1011.4 |
| 20260507231204 | 18 | 256 | 8.0 | 20.9 | 0.00 | 0.00 | 0.00 | 79 | 1011.4 |
| 20260507230423 | 18 | 240 | 3.2 | 9.7 | 0.00 | 0.00 | 0.00 | 79 | 1011.4 |
| 20260507225122 | 18 | 228 | 8.0 | 14.5 | 0.00 | 0.00 | 0.00 | 77 | 1011.4 |
| 20260507224206 | 18 | 263 | 11.3 | 19.3 | 0.00 | 0.00 | 0.00 | 76 | 1011.5 |
| 20260507223822 | 18 | 236 | 8.0 | 11.3 | 0.00 | 0.00 | 0.00 | 76 | 1011.4 |
| 20260507222521 | 18 | 225 | 11.3 | 16.1 | 0.00 | 0.00 | 0.00 | 75 | 1011.2 |
| 20260507221221 | 18 | 240 | 3.2 | 6.4 | 0.00 | 0.00 | 0.00 | 79 | 1011.0 |
| 20260507215923 | 18 | 244 | 3.2 | 3.2 | 0.00 | 0.00 | 0.00 | 78 | 1010.6 |
| 20260507214622 | 18 | 219 | 3.2 | 6.4 | 0.00 | 0.00 | 0.00 | 79 | 1010.5 |
| 20260507214205 | 18 | 227 | 1.6 | 3.2 | 0.00 | 0.00 | 0.00 | 80 | 1010.5 |
| 20260507213322 | 18 | 231 | 8.0 | 11.3 | 0.00 | 0.00 | 0.00 | 80 | 1010.6 |
| 20260507212023 | 18 | 227 | 9.7 | 16.1 | 0.00 | 0.00 | 0.00 | 83 | 1010.7 |
| 20260507211204 | 18 | 234 | 8.0 | 11.3 | 0.00 | 0.00 | 0.00 | 85 | 1010.7 |
| 20260507210721 | 18 | 242 | 8.0 | 14.5 | 0.00 | 0.00 | 0.00 | 85 | 1010.7 |
| 20260507205423 | 18 | 241 | 6.4 | 14.5 | 0.00 | 0.00 | 0.00 | 85 | 1010.5 |
| 20260507204204 | 19 | 252 | 9.7 | 19.3 | 0.00 | 0.00 | 0.00 | 83 | 1010.4 |
| 20260507204123 | 19 | 247 | 6.4 | 12.9 | 0.00 | 0.00 | 0.00 | 83 | 1010.4 |
| 20260507202823 | 19 | 208 | 3.2 | 6.4 | 0.00 | 0.00 | 0.00 | 81 | 1010.3 |
| 20260507201522 | 19 | 251 | 4.8 | 6.4 | 0.00 | 0.00 | 0.00 | 81 | 1010.3 |
| 20260507201205 | 19 | 248 | 1.6 | 3.2 | 0.00 | 0.00 | 0.00 | 81 | 1010.3 |
| 20260507200222 | 19 | 231 | 4.8 | 9.7 | 0.00 | 0.00 | 0.00 | 82 | 1010.2 |
| 20260507194921 | 19 | 257 | 3.2 | 3.2 | 0.00 | 0.00 | 0.00 | 83 | 1010.3 |
| 20260507194204 | 19 | 265 | 1.6 | 4.8 | 0.00 | 0.00 | 0.00 | 83 | 1010.1 |
| 20260507193623 | 19 | 243 | 3.2 | 6.4 | 0.00 | 0.00 | 0.00 | 83 | 1010.2 |
| 20260507192322 | 20 | 243 | 8.0 | 14.5 | 0.00 | 0.00 | 0.00 | 83 | 1010.3 |
| 20260507191205 | 20 | 262 | 4.8 | 8.0 | 0.00 | 0.00 | 0.00 | 83 | 1010.3 |
| 20260507191022 | 20 | 244 | 4.8 | 8.0 | 0.00 | 0.00 | 0.00 | 83 | 1010.3 |
| 20260507185722 | 20 | 266 | 6.4 | 9.7 | 0.00 | 0.00 | 0.00 | 83 | 1009.9 |
| 20260507184421 | 19 | 242 | 3.2 | 6.4 | 0.00 | 0.00 | 0.00 | 84 | 1009.9 |
| 20260507184206 | 19 | 242 | 3.2 | 3.2 | 0.00 | 0.00 | 0.00 | 84 | 1009.9 |
| 20260507183123 | 20 | 241 | 4.8 | 6.4 | 0.00 | 0.00 | 0.00 | 84 | 1009.8 |
| 20260507181822 | 19 | 241 | 1.6 | 4.8 | 0.00 | 0.00 | 0.00 | 84 | 1009.6 |
| 20260507181205 | 19 | 241 | 1.6 | 0.0 | 0.00 | 0.00 | 0.00 | 84 | 1009.7 |
| 20260507180522 | 19 | 241 | 3.2 | 8.0 | 0.00 | 0.00 | 0.00 | 84 | 1009.8 |
| 20260507175221 | 19 | 240 | 3.2 | 4.8 | 0.00 | 0.00 | 0.00 | 84 | 1009.7 |
| 20260507174204 | 19 | 221 | 1.6 | 4.8 | 0.00 | 0.00 | 0.00 | 83 | 1009.7 |
| 20260507173923 | 19 | 221 | 1.6 | 3.2 | 0.00 | 0.00 | 0.00 | 83 | 1009.7 |
| 20260507172622 | 19 | 227 | 4.8 | 8.0 | 0.00 | 0.00 | 0.00 | 83 | 1009.8 |
| 20260507171322 | 19 | 232 | 6.4 | 11.3 | 0.00 | 0.00 | 0.00 | 83 | 1009.8 |
| 20260507171203 | 19 | 254 | 9.7 | 11.3 | 0.00 | 0.00 | 0.00 | 83 | 1009.8 |
| 20260507170022 | 19 | 190 | 3.2 | 6.4 | 0.00 | 0.00 | 0.00 | 83 | 1009.9 |
| 20260507164721 | 19 | 182 | 6.4 | 9.7 | 0.00 | 0.00 | 0.00 | 84 | 1009.8 |
| 20260507164204 | 19 | 179 | 3.2 | 6.4 | 0.00 | 0.00 | 0.00 | 84 | 1009.9 |
| 20260507163423 | 18 | 192 | 3.2 | 8.0 | 0.00 | 0.00 | 0.00 | 84 | 1010.0 |
| 20260507162122 | 18 | 214 | 3.2 | 3.2 | 0.00 | 0.00 | 0.00 | 84 | 1010.2 |
| 20260507161203 | 18 | 208 | 3.2 | 8.0 | 0.00 | 0.00 | 0.00 | 84 | 1010.1 |
| 20260507160822 | 18 | 186 | 3.2 | 8.0 | 0.00 | 0.00 | 0.00 | 84 | 1010.1 |
| 20260507155522 | 19 | 182 | 3.2 | 6.4 | 0.00 | 0.00 | 0.00 | 84 | 1010.5 |
| 20260507154205 | 19 | 185 | 1.6 | 6.4 | 0.00 | 0.00 | 0.00 | 84 | 1010.6 |
| 20260507152923 | 19 | 157 | 4.8 | 8.0 | 0.00 | 0.00 | 0.00 | 84 | 1010.7 |
| 20260507151623 | 19 | 190 | 4.8 | 6.4 | 0.00 | 0.00 | 0.00 | 84 | 1010.9 |
| 20260507151203 | 19 | 177 | 1.6 | 3.2 | 0.00 | 0.00 | 0.00 | 84 | 1011.0 |
| 20260507150322 | 19 | 165 | 0.0 | 0.0 | 0.00 | 0.00 | 0.00 | 84 | 1011.0 |
| 20260507145021 | 19 | 141 | 3.2 | 4.8 | 0.00 | 0.00 | 0.00 | 83 | 1011.0 |
| 20260507144205 | 20 | 142 | 1.6 | 3.2 | 0.00 | 0.00 | 0.00 | 82 | 1011.1 |
| 20260507143723 | 20 | 222 | 0.0 | 1.6 | 0.00 | 0.00 | 0.00 | 82 | 1011.2 |
| 20260507142422 | 20 | 222 | 0.0 | 0.0 | 0.00 | 0.00 | 0.00 | 81 | 1011.2 |
| 20260507141203 | 20 | 222 | 0.0 | 1.6 | 0.00 | 0.00 | 0.00 | 81 | 1011.0 |
| 20260507141122 | 20 | 222 | 0.0 | 1.6 | 0.00 | 0.00 | 0.00 | 81 | 1011.0 |
| 20260507135822 | 20 | 243 | 0.0 | 0.0 | 0.00 | 0.00 | 0.00 | 81 | 1011.2 |
| 20260507134521 | 20 | 215 | 0.0 | 1.6 | 0.00 | 0.00 | 0.00 | 80 | 1011.3 |
| 20260507134204 | 20 | 284 | 0.0 | 0.0 | 0.00 | 0.00 | 0.00 | 80 | 1011.2 |
| 20260507133223 | 20 | 284 | 0.0 | 3.2 | 0.00 | 0.00 | 0.00 | 80 | 1011.2 |
| 20260507131922 | 20 | 284 | 1.6 | 1.6 | 0.00 | 0.00 | 0.00 | 80 | 1011.3 |
| 20260507131203 | 20 | 284 | 0.0 | 1.6 | 0.00 | 0.00 | 0.00 | 80 | 1011.3 |
| 20260507130622 | 20 | 170 | 0.0 | 1.6 | 0.00 | 0.00 | 0.00 | 80 | 1011.3 |
| 20260507125321 | 20 | 143 | 0.0 | 3.2 | 0.00 | 0.00 | 0.00 | 78 | 1011.3 |
| 20260507124205 | 21 | 236 | 0.0 | 1.6 | 0.00 | 0.00 | 0.00 | 78 | 1011.2 |
| 20260507124023 | 21 | 236 | 0.0 | 0.0 | 0.00 | 0.00 | 0.00 | 78 | 1011.2 |
| 20260507122723 | 21 | 236 | 0.0 | 0.0 | 0.00 | 0.00 | 0.00 | 78 | 1011.3 |
| 20260507121422 | 21 | 236 | 1.6 | 3.2 | 0.00 | 0.00 | 0.00 | 77 | 1011.4 |
| 20260507121204 | 21 | 235 | 0.0 | 1.6 | 0.00 | 0.00 | 0.00 | 77 | 1011.3 |
| 20260507120122 | 21 | 235 | 1.6 | 1.6 | 0.00 | 0.00 | 0.00 | 77 | 1011.3 |
| 20260507114821 | 21 | 235 | 0.0 | 0.0 | 0.00 | 0.00 | 0.00 | 76 | 1010.9 |
| 20260507114204 | 21 | 235 | 0.0 | 3.2 | 0.00 | 0.00 | 0.00 | 76 | 1010.9 |
| 20260507113523 | 21 | 235 | 0.0 | 0.0 | 0.00 | 0.00 | 0.00 | 76 | 1010.9 |
| 20260507112222 | 21 | 235 | 0.0 | 0.0 | 0.00 | 0.00 | 0.00 | 75 | 1010.8 |
| 20260507111204 | 21 | 235 | 0.0 | 4.8 | 0.00 | 0.00 | 0.00 | 74 | 1010.7 |
| 20260507110922 | 21 | 235 | 0.0 | 0.0 | 0.00 | 0.00 | 0.00 | 74 | 1010.6 |
| 20260507105621 | 21 | 289 | 0.0 | 0.0 | 0.00 | 0.00 | 0.00 | 73 | 1010.5 |
| 20260507104321 | 21 | 203 | 1.6 | 3.2 | 0.00 | 0.00 | 0.00 | 72 | 1010.5 |
| 20260507104204 | 21 | 203 | 0.0 | 3.2 | 0.00 | 0.00 | 0.00 | 72 | 1010.5 |
| 20260507103022 | 22 | 248 | 0.0 | 1.6 | 0.00 | 0.00 | 0.00 | 71 | 1010.5 |
| 20260507101722 | 22 | 248 | 0.0 | 4.8 | 0.00 | 0.00 | 0.00 | 70 | 1010.6 |
| 20260507101205 | 22 | 300 | 3.2 | 4.8 | 0.00 | 0.00 | 0.00 | 70 | 1010.5 |
| 20260507100421 | 22 | 304 | 3.2 | 4.8 | 0.00 | 0.00 | 0.00 | 70 | 1010.5 |
| 20260507095123 | 22 | 243 | 1.6 | 1.6 | 0.00 | 0.00 | 0.00 | 68 | 1010.3 |
| 20260507094204 | 22 | 297 | 3.2 | 8.0 | 0.00 | 0.00 | 0.00 | 67 | 1010.1 |
| 20260507093822 | 22 | 294 | 3.2 | 4.8 | 0.00 | 0.00 | 0.00 | 67 | 1010.0 |
| 20260507092522 | 23 | 234 | 6.4 | 8.0 | 0.00 | 0.00 | 0.00 | 66 | 1010.0 |
| 20260507091205 | 23 | 271 | 4.8 | 16.1 | 0.00 | 0.00 | 0.00 | 65 | 1010.0 |
| 20260507085921 | 24 | 251 | 6.4 | 9.7 | 0.00 | 0.00 | 0.00 | 63 | 1009.9 |
| 20260507084623 | 24 | 240 | 8.0 | 14.5 | 0.00 | 0.00 | 0.00 | 63 | 1009.9 |
| 20260507084203 | 24 | 263 | 1.6 | 8.0 | 0.00 | 0.00 | 0.00 | 64 | 1009.9 |
| 20260507083322 | 24 | 270 | 11.3 | 14.5 | 0.00 | 0.00 | 0.00 | 63 | 1010.0 |
| 20260507082021 | 24 | 267 | 8.0 | 17.7 | 0.00 | 0.00 | 0.00 | 64 | 1010.1 |
| 20260507081205 | 25 | 306 | 1.6 | 4.8 | 0.00 | 0.00 | 0.00 | 63 | 1010.1 |
| 20260507080723 | 25 | 281 | 6.4 | 11.3 | 0.00 | 0.00 | 0.00 | 62 | 1010.1 |
| 20260507075422 | 26 | 246 | 6.4 | 11.3 | 0.00 | 0.00 | 0.00 | 60 | 1010.0 |
| 20260507074203 | 26 | 243 | 8.0 | 11.3 | 0.00 | 0.00 | 0.00 | 60 | 1010.0 |
| 20260507074122 | 26 | 243 | 8.0 | 11.3 | 0.00 | 0.00 | 0.00 | 60 | 1010.0 |
| 20260507072822 | 25 | 301 | 6.4 | 9.7 | 0.00 | 0.00 | 0.00 | 62 | 1010.1 |